Weather History for KFMH - March, 2013

Change the Weather History Date:

Wednesday, March 20, 2013

  Actual Average Record
Temperature  
Mean Temperature 34 °F -  
Max Temperature 41 °F 42 °F 69 °F (2012)
Min Temperature 26 °F 27 °F 15 °F (2015)
Degree Days  
Heating Degree Days 30    
Moisture  
Dew Point 22 °F    
Average Humidity 64    
Maximum Humidity 93    
Minimum Humidity 33    
Precipitation  
Precipitation 0.00 in - - ()
Sea Level Pressure  
Sea Level Pressure 29.76 in    
Wind  
Wind Speed 15 mph (West)    
Max Wind Speed 24 mph    
Max Gust Speed 33 mph    
Visibility 10 miles    
Events      
Averages and records for this station are not official NWS values.
T = Trace of Precipitation, MM = Missing Value Source: NWS Daily Summary

Daily Weather History Graph

Daily Weather History Graph

Search for Another Location

Airport or City:

Trip Planner

Search our weather history database for the weather conditions in past years. The results will help you decide how hot, cold, wet, or windy it might be!

Date:

Astronomy

Mar. 20, 2013 Rise Set
Actual Time 6:45 AM EDT 6:54 PM EDT
Civil Twilight 6:17 AM EDT 7:22 PM EDT
Nautical Twilight 5:44 AM EDT 7:54 PM EDT
Astronomical Twilight 5:11 AM EDT 8:27 PM EDT
Moon 12:22 PM EDT (3/20) 2:26 AM EDT (3/20)
Length of Visible Light 13h 04m
Length of Day
12h 09m
First Quarter, 59% of the Moon is Illuminated
Mar 20
First Quarter
Mar 27
Full
Apr 3
Last Quarter
Apr 10
New
Apr 18
First Quarter

Hourly Weather History & Observations

Time (EDT) Temp. Windchill Dew Point Humidity Pressure Visibility Wind Dir Wind Speed Gust Speed Precip Events Conditions
12:15 AM 32.0 °F 22.1 °F 30.2 °F 93% 29.66 in 10.0 mi NW 13.8 mph 26.5 mph N/A   Overcast
12:35 AM 32.0 °F 22.1 °F 28.4 °F 87% 29.67 in 10.0 mi NW 13.8 mph 25.3 mph N/A   Overcast
12:55 AM 32.0 °F 22.1 °F 26.6 °F 80% 29.67 in 10.0 mi NW 13.8 mph 24.2 mph N/A   Overcast
1:15 AM 32.0 °F 23.0 °F 26.6 °F 80% 29.67 in 10.0 mi NW 11.5 mph 17.3 mph N/A   Overcast
1:35 AM 30.2 °F 19.8 °F 26.6 °F 86% 29.69 in 10.0 mi WNW 13.8 mph - N/A   Overcast
1:55 AM 30.2 °F 20.8 °F 26.6 °F 86% 29.70 in 10.0 mi NW 11.5 mph 18.4 mph N/A   Overcast
2:15 AM 28.4 °F 17.5 °F 24.8 °F 86% 29.71 in 10.0 mi WNW 13.8 mph 19.6 mph N/A   Overcast
2:35 AM 28.4 °F 19.1 °F 24.8 °F 86% 29.71 in 10.0 mi WNW 10.4 mph - N/A   Mostly Cloudy
2:55 AM 28.4 °F 18.5 °F 24.8 °F 86% 29.72 in 10.0 mi WNW 11.5 mph - N/A   Mostly Cloudy
3:15 AM 28.4 °F 20.4 °F 24.8 °F 86% 29.72 in 10.0 mi WNW 8.1 mph - N/A   Mostly Cloudy
3:35 AM 28.4 °F 18.5 °F 24.8 °F 86% 29.72 in 10.0 mi WNW 11.5 mph 18.4 mph N/A   Scattered Clouds
3:55 AM 28.4 °F 18.5 °F 24.8 °F 86% 29.73 in 10.0 mi WNW 11.5 mph 18.4 mph N/A   Scattered Clouds
4:15 AM 28.4 °F 19.7 °F 24.8 °F 86% 29.73 in 10.0 mi WNW 9.2 mph - N/A   Mostly Cloudy
4:35 AM 28.4 °F 19.7 °F 24.8 °F 86% 29.73 in 10.0 mi WNW 9.2 mph - N/A   Overcast
4:55 AM 28.4 °F 19.1 °F 24.8 °F 86% 29.74 in 10.0 mi West 10.4 mph - N/A   Mostly Cloudy
5:15 AM 28.4 °F 16.6 °F 23.0 °F 80% 29.74 in 10.0 mi WNW 16.1 mph 20.7 mph N/A   Partly Cloudy
5:35 AM 28.4 °F 16.2 °F 21.2 °F 74% 29.75 in 10.0 mi WNW 17.3 mph 24.2 mph N/A   Partly Cloudy
5:55 AM 28.4 °F 17.0 °F 19.4 °F 69% 29.75 in 10.0 mi WNW 15.0 mph 24.2 mph N/A   Clear
6:15 AM 28.4 °F 17.0 °F 19.4 °F 69% 29.76 in 10.0 mi WNW 15.0 mph 25.3 mph N/A   Clear
6:35 AM 28.4 °F 14.4 °F 17.6 °F 64% 29.75 in 10.0 mi WNW 23.0 mph 26.5 mph N/A   Clear
6:55 AM 28.4 °F 17.0 °F 19.4 °F 69% 29.75 in 10.0 mi WNW 15.0 mph 23.0 mph N/A   Clear
7:15 AM 28.4 °F 15.4 °F 19.4 °F 69% 29.76 in 10.0 mi West 19.6 mph 27.6 mph N/A   Clear
7:35 AM 30.2 °F 18.9 °F 19.4 °F 64% 29.76 in 10.0 mi West 16.1 mph 23.0 mph N/A   Clear
7:55 AM 32.0 °F 21.6 °F 19.4 °F 60% 29.77 in 10.0 mi West 15.0 mph 25.3 mph N/A   Clear
8:15 AM 32.0 °F 20.1 °F 21.2 °F 64% 29.77 in 10.0 mi West 19.6 mph 23.0 mph N/A   Clear
8:35 AM 32.0 °F 19.5 °F 19.4 °F 60% 29.77 in 10.0 mi West 21.9 mph 32.2 mph N/A   Clear
8:55 AM 32.0 °F 19.5 °F 19.4 °F 60% 29.77 in 10.0 mi West 21.9 mph 27.6 mph N/A   Partly Cloudy
9:15 AM 32.0 °F 19.2 °F 19.4 °F 60% 29.78 in 10.0 mi West 23.0 mph 29.9 mph N/A   Partly Cloudy
9:35 AM 32.0 °F 19.5 °F 19.4 °F 60% 29.78 in 10.0 mi West 21.9 mph 29.9 mph N/A   Partly Cloudy
9:55 AM 32.0 °F 20.5 °F 17.6 °F 55% 29.77 in 10.0 mi WNW 18.4 mph 31.1 mph N/A   Partly Cloudy
10:15 AM 32.0 °F 18.9 °F 17.6 °F 55% 29.77 in 10.0 mi West 24.2 mph 29.9 mph N/A   Scattered Clouds
10:35 AM 32.0 °F 21.6 °F 17.6 °F 55% 29.78 in 10.0 mi WNW 15.0 mph 27.6 mph N/A   Overcast
10:55 AM 33.8 °F 23.2 °F 17.6 °F 52% 29.78 in 10.0 mi West 17.3 mph 24.2 mph N/A   Overcast
11:15 AM 33.8 °F 22.8 °F 17.6 °F 52% 29.78 in 10.0 mi WNW 18.4 mph 24.2 mph N/A   Overcast
11:35 AM 37.4 °F 27.8 °F 17.6 °F 45% 29.77 in 10.0 mi WNW 17.3 mph 27.6 mph N/A   Mostly Cloudy
11:55 AM 37.4 °F 28.2 °F 17.6 °F 45% 29.77 in 10.0 mi West 16.1 mph 24.2 mph N/A   Scattered Clouds
12:15 PM 39.2 °F 28.7 °F 17.6 °F 42% 29.76 in 10.0 mi West 23.0 mph 28.8 mph N/A   Partly Cloudy
12:35 PM 39.2 °F 29.0 °F 15.8 °F 39% 29.77 in 10.0 mi West 21.9 mph 29.9 mph N/A   Partly Cloudy
12:55 PM 39.2 °F 29.6 °F 15.8 °F 39% 29.77 in 10.0 mi West 19.6 mph 29.9 mph N/A   Clear
1:15 PM 39.2 °F 29.3 °F 17.6 °F 42% 29.76 in 10.0 mi West 20.7 mph 26.5 mph N/A   Clear
1:35 PM 39.2 °F 28.5 °F 15.8 °F 39% 29.76 in 10.0 mi West 24.2 mph 29.9 mph N/A   Clear
1:55 PM 39.2 °F 29.0 °F 17.6 °F 42% 29.75 in 10.0 mi West 21.9 mph 25.3 mph N/A   Clear
2:15 PM 39.2 °F 29.0 °F 17.6 °F 42% 29.75 in 10.0 mi West 21.9 mph 28.8 mph N/A   Clear
2:35 PM 39.2 °F 29.8 °F 15.8 °F 39% 29.74 in 10.0 mi West 18.4 mph 27.6 mph N/A   Clear
2:55 PM 41.0 °F 31.6 °F 15.8 °F 36% 29.74 in 10.0 mi West 20.7 mph 27.6 mph N/A   Clear
3:15 PM 41.0 °F 31.6 °F 15.8 °F 36% 29.74 in 10.0 mi West 20.7 mph 24.2 mph N/A   Clear
3:35 PM 41.0 °F 31.9 °F 15.8 °F 36% 29.74 in 10.0 mi West 19.6 mph 32.2 mph N/A   Clear
3:55 PM 41.0 °F 32.5 °F 15.8 °F 36% 29.74 in 10.0 mi WNW 17.3 mph 25.3 mph N/A   Clear
4:15 PM 39.2 °F 29.6 °F 15.8 °F 39% 29.74 in 10.0 mi West 19.6 mph 27.6 mph N/A   Clear
4:35 PM 39.2 °F 29.0 °F 24.8 °F 56% 29.75 in 10.0 mi WSW 21.9 mph 29.9 mph N/A   Mostly Cloudy
4:55 PM 39.2 °F 29.3 °F 23.0 °F 52% 29.75 in 10.0 mi WSW 20.7 mph 33.4 mph N/A   Mostly Cloudy
5:15 PM 37.4 °F 27.2 °F 24.8 °F 60% 29.76 in 10.0 mi WSW 19.6 mph 24.2 mph N/A   Mostly Cloudy
5:35 PM 37.4 °F 27.2 °F 23.0 °F 56% 29.77 in 10.0 mi WSW 19.6 mph 26.5 mph N/A   Mostly Cloudy
5:55 PM 37.4 °F 28.2 °F 21.2 °F 52% 29.78 in 10.0 mi WSW 16.1 mph 27.6 mph N/A   Overcast
6:15 PM 37.4 °F 27.8 °F 21.2 °F 52% 29.78 in 10.0 mi West 17.3 mph 24.2 mph N/A   Overcast
6:35 PM 37.4 °F 28.5 °F 21.2 °F 52% 29.79 in 10.0 mi WSW 15.0 mph 21.9 mph N/A   Overcast
6:55 PM 37.4 °F 28.5 °F 24.8 °F 60% 29.80 in 10.0 mi WSW 15.0 mph 23.0 mph N/A   Overcast
7:15 PM 37.4 °F 29.3 °F 26.6 °F 65% 29.81 in 10.0 mi WSW 12.7 mph - N/A   Overcast
7:35 PM 37.4 °F 30.3 °F 24.8 °F 60% 29.81 in 10.0 mi WSW 10.4 mph - N/A   Overcast
7:55 PM 35.6 °F 28.6 °F 26.6 °F 70% 29.82 in 10.0 mi WSW 9.2 mph - N/A   Overcast
8:15 PM 33.8 °F 27.0 °F 26.6 °F 75% 29.82 in 10.0 mi WSW 8.1 mph - N/A   Overcast
8:35 PM 32.0 °F 25.6 °F 24.8 °F 75% 29.82 in 10.0 mi WSW 6.9 mph - N/A   Scattered Clouds
8:55 PM 32.0 °F 26.4 °F 24.8 °F 75% 29.82 in 10.0 mi WSW 5.8 mph - N/A   Clear
9:15 PM 32.0 °F 27.5 °F 24.8 °F 75% 29.83 in 10.0 mi SW 4.6 mph - N/A   Clear
9:35 PM 32.0 °F 28.7 °F 24.8 °F 75% 29.83 in 10.0 mi SW 3.5 mph - N/A   Clear
9:55 PM 32.0 °F 27.5 °F 24.8 °F 75% 29.83 in 10.0 mi SW 4.6 mph - N/A   Clear
10:15 PM 30.2 °F 25.4 °F 24.8 °F 80% 29.83 in 10.0 mi SSW 4.6 mph - N/A   Clear
10:35 PM 30.2 °F - 24.8 °F 80% 29.83 in 10.0 mi Calm Calm - N/A   Clear
10:55 PM 28.4 °F 24.6 °F 24.8 °F 86% 29.82 in 10.0 mi South 3.5 mph - N/A   Clear
11:15 PM 28.4 °F - 24.8 °F 86% 29.82 in 10.0 mi Calm Calm - N/A   Clear
11:35 PM 28.4 °F - 24.8 °F 86% 29.82 in 10.0 mi Calm Calm - N/A   Clear
11:55 PM 26.6 °F - 23.0 °F 86% 29.82 in 10.0 mi Calm Calm - N/A   Clear